Weather History for Danville, VA

Change the Weather History Date:

Wednesday, February 19, 2014

  Actual Average Record
Temperature  
Mean Temperature 55 °F 42 °F  
Max Temperature 70 °F 51 °F 73 °F (1981)
Min Temperature 40 °F 32 °F 11 °F (1958)
Degree Days  
Heating Degree Days 10 23  
Month to date heating degree days 482 475  
Since 1 July heating degree days 2818 2803  
Cooling Degree Days 0 0  
Month to date cooling degree days 0 0  
Year to date cooling degree days 0 0  
Growing Degree Days 6 (Base 50)    
Moisture  
Dew Point 45 °F    
Average Humidity 66    
Maximum Humidity 86    
Minimum Humidity 45    
Precipitation  
Precipitation 0.06 in 0.11 in 1.25 in (1962)
Month to date precipitation 1.68 2.13  
Year to date precipitation 4.97 5.55  
Snow  
Snow 0.00 in - - ()
Month to date snowfall 6.3  
Since 1 July snowfall 7.9  
Snow Depth 0.00 in    
Sea Level Pressure  
Sea Level Pressure 29.94 in    
Wind  
Wind Speed 7 mph (WSW)    
Max Wind Speed 23 mph    
Max Gust Speed 31 mph    
Visibility 9 miles    
Events Rain    
T = Trace of Precipitation, MM = Missing Value Source: NWS Daily Summary

Daily Weather History Graph

Daily Weather History Graph

Search for Another Location

Airport:

Trip Planner

Search our weather history database for the weather conditions in past years. The results will help you decide how hot, cold, wet, or windy it might be!

Date:

Astronomy

Feb. 19, 2014 Rise Set
Actual Time 7:00 AM EST 6:02 PM EST
Civil Twilight 6:34 AM EST 6:28 PM EST
Nautical Twilight 6:04 AM EST 6:58 PM EST
Astronomical Twilight 5:34 AM EST 7:28 PM EST
Moon 10:44 PM EST (2/19) 9:13 AM EST (2/19)
Length of Visible Light 11h 53m
Length of Day
11h 01m
Waning Gibbous, 80% of the Moon is Illuminated
Feb 19
Waning Gibbous
Feb 22
Last Quarter
Mar 1
New
Mar 8
First Quarter
Mar 16
Full

Hourly Weather History & Observations

Time (EST) Temp. Windchill Dew Point Humidity Pressure Visibility Wind Dir Wind Speed Gust Speed Precip Events Conditions
12:53 AM 44.1 °F - 25.0 °F 47% 30.05 in 10.0 mi Calm Calm - N/A   Clear
1:53 AM 43.0 °F - 30.9 °F 62% 30.04 in 10.0 mi Calm Calm - N/A   Clear
2:53 AM 42.1 °F - 28.9 °F 60% 30.01 in 10.0 mi Calm Calm - N/A   Mostly Cloudy
3:53 AM 44.1 °F - 34.0 °F 68% 29.96 in 10.0 mi Calm Calm - N/A   Overcast
4:53 AM 45.0 °F - 34.0 °F 65% 29.94 in 10.0 mi Calm Calm - N/A   Overcast
5:53 AM 45.0 °F 41.8 °F 36.0 °F 71% 29.93 in 9.0 mi South 5.8 mph - 0.00 in Rain Light Rain
6:53 AM 46.9 °F - 43.0 °F 86% 29.93 in 10.0 mi SSW 5.8 mph - 0.00 in   Overcast
7:00 AM 46.4 °F 45.2 °F 42.8 °F 87% 29.94 in 10.0 mi SSW 3.5 mph - N/A   Overcast
7:07 AM 46.4 °F 44.3 °F 44.6 °F 93% 29.94 in 10.0 mi SW 4.6 mph - N/A   Overcast
7:16 AM 48.2 °F - 44.6 °F 87% 29.94 in 10.0 mi SW 5.8 mph - N/A   Overcast
7:53 AM 50.0 °F - 46.9 °F 89% 29.93 in 7.0 mi SW 5.8 mph - N/A   Overcast
8:53 AM 51.1 °F - 48.9 °F 92% 29.95 in 4.0 mi SW 5.8 mph - 0.02 in Rain Light Rain
9:36 AM 51.8 °F - 48.2 °F 88% 29.94 in 3.0 mi SW 5.8 mph - 0.03 in Rain Light Rain
9:53 AM 52.0 °F - 51.1 °F 97% 29.92 in 4.0 mi SSW 3.5 mph - 0.04 in   Overcast
10:11 AM 53.6 °F - 51.8 °F 94% 29.93 in 6.0 mi SW 5.8 mph - N/A   Overcast
10:24 AM 53.6 °F - 51.8 °F 94% 29.93 in 8.0 mi Variable 6.9 mph - N/A   Overcast
10:42 AM 55.4 °F - 51.8 °F 88% 29.92 in 10.0 mi SW 8.1 mph - N/A   Overcast
10:53 AM 55.0 °F - 52.0 °F 89% 29.91 in 10.0 mi SW 9.2 mph - N/A   Overcast
11:53 AM 57.0 °F - 53.1 °F 87% 29.89 in 10.0 mi SW 11.5 mph - N/A   Overcast
12:22 PM 59.0 °F - 53.6 °F 82% 29.90 in 10.0 mi WSW 15.0 mph 25.3 mph N/A   Overcast
12:49 PM 62.6 °F - 55.4 °F 77% 29.90 in 10.0 mi WSW 17.3 mph - N/A   Mostly Cloudy
12:53 PM 62.1 °F - 55.0 °F 78% 29.88 in 10.0 mi WSW 16.1 mph - N/A   Mostly Cloudy
1:09 PM 62.6 °F - 53.6 °F 72% 29.90 in 10.0 mi WSW 17.3 mph 21.9 mph N/A   Scattered Clouds
1:53 PM 64.9 °F - 52.0 °F 63% 29.85 in 10.0 mi WSW 19.6 mph 31.1 mph N/A   Clear
2:53 PM 68.0 °F - 51.1 °F 55% 29.85 in 10.0 mi WSW 19.6 mph 26.5 mph N/A   Clear
3:53 PM 69.1 °F - 50.0 °F 51% 29.86 in 10.0 mi WSW 16.1 mph 25.3 mph N/A   Clear
4:53 PM 70.0 °F - 48.0 °F 46% 29.88 in 10.0 mi WSW 17.3 mph 24.2 mph N/A   Clear
5:53 PM 66.9 °F - 48.0 °F 51% 29.92 in 10.0 mi WSW 8.1 mph - N/A   Clear
6:53 PM 64.9 °F - 46.0 °F 50% 29.95 in 10.0 mi Calm Calm - N/A   Clear
7:53 PM 62.1 °F - 45.0 °F 53% 29.98 in 10.0 mi WNW 3.5 mph - N/A   Clear
8:53 PM 55.9 °F - 43.0 °F 62% 30.01 in 10.0 mi SW 4.6 mph - N/A   Clear
9:53 PM 53.1 °F - 41.0 °F 64% 30.05 in 10.0 mi NNW 5.8 mph - N/A   Clear
10:53 PM 50.0 °F - 37.9 °F 63% 30.06 in 10.0 mi NNE 5.8 mph - N/A   Clear
11:53 PM 50.0 °F - 34.0 °F 54% 30.06 in 10.0 mi NNE 3.5 mph - N/A   Clear